Regional Weather Roundup
Issued by NWS Goodland, KS

Home | Current Version | Previous Version | Graphics & Text | Print | Product List | Glossary On
Versions: 1 2 3 4 5 6 7 8 9 10 11 12 13 14 15 16 17 18 19 20 21 22 23 24 25 26 27 28 29 30 31 32 33 34 35 36 37 38 39 40 41 42 43 44 45 46 47 48 49 50
000
ASUS43 KGLD 251859
RWRGLD

GOODLAND FORECAST AREA HOURLY WEATHER ROUNDUP
NATIONAL WEATHER SERVICE GOODLAND KS
100 PM MDT WED APR 25 2018

...OFFICIAL OBSERVATIONS...

CITY           SKY/WX    TMP DP  RH WIND       PRES   REMARKS
GOODLAND KS    SUNNY     52  30  43 NW10G21   30.22F
HILL CITY KS   MOSUNNY   54  33  45 N13G26    30.23F
IMPERIAL NEB   SUNNY     55  28  35 W7G18     30.22F
MCCOOK NEB     SUNNY     57  34  41 NW10G20   30.21F
AKRON CO       SUNNY     53  29  39 NW9       30.22F
BURLINGTON CO  SUNNY     52  29  41 NW7G18    30.24F
LIMON CO       SUNNY     52  25  35 W7        30.24F
$$

...UNOFFICIAL OBSERVATIONS...

CITY           SKY/WX    TMP DP  RH WIND       PRES   REMARKS
NORTON KS      MOSUNNY   55  34  44 NW8G17    30.21
SHARON SPRINGS   N/A     53  34  49 NW10G17     N/A
KIT CARSON CO    N/A     51  32  48 MISG        N/A
YUMA CO        FAIR      52  25  35 NW7       30.22F
$$




USA.gov is the U.S. government's official web portal to all federal, state and local government web resources and services.